Location: Waco, TX
(31.5480°N, 97.1670°W)
Time: 09:22:55
(UTC-05:00)

ISS - Pass Details

Date: 22 May 2017
Orbit: 402 x 409 km, 51.6° (Epoch: 25 May)

Event Time Altitude Azimuth Distance (km) Brightness Sun altitude
Rises 22:40:36 0° 241° (WSW) 2,320 0.2 -24.6°
Reaches altitude 10° 22:42:47 10° 251° (WSW) 1,462 -0.8 -24.9°
Enters shadow 22:43:02 12° 253° (WSW) 1,363 -0.9 -24.9°
Maximum altitude 22:45:50 35° 319° (NW) 672 - -25.3°
Drops below altitude 10° 22:48:53 10° 28° (NNE) 1,466 - -25.8°
Sets 22:51:05 0° 37° (NE) 2,327 - -26.1°
